• MPC Preparation (Info)

  • MPEC 2016-E155: 2016 EP86

    The following Minor Planet Electronic Circular may be linked-to from your own Web pages, but must not otherwise be redistributed electronically.

    A form allowing access to any MPEC is at the bottom of this page.


    Read MPEC 2016-E154 Read MPEC 2016-E156


    M.P.E.C. 2016-E155                               Issued 2016 Mar. 13, 19:16 UT
    
         The Minor Planet Electronic Circulars contain information on unusual
             minor planets and routine data on comets.  They are published
        on behalf of Division F of the International Astronomical Union by the
              Minor Planet Center, Smithsonian Astrophysical Observatory,
                              Cambridge, MA 02138, U.S.A.
    
                 Prepared using the Tamkin Foundation Computer Network
    
                                  MPC@CFA.HARVARD.EDU
                URL https://www.minorplanetcenter.net/    ISSN 1523-6714
    
                                       2016 EP86
    
    Observations:
         K16E86P* C2016 03 06.51514 14 12 13.096-09 15 20.95         21.5 wLEE155F51
         K16E86P  C2016 03 06.52673 14 12 14.691-09 15 21.04         21.3 wLEE155F51
         K16E86P  C2016 03 06.53835 14 12 16.278-09 15 21.22         21.2 wLEE155F51
         K16E86P  C2016 03 06.55000 14 12 17.889-09 15 21.34         21.2 wLEE155F51
         K16E86P  C2016 03 09.46341 14 19 18.78 -09 14 31.6          21.3 RoEE155926
         K16E86P  C2016 03 09.47539 14 19 20.40 -09 14 30.2          20.9 RoEE155926
         K16E86P  C2016 03 09.48721 14 19 22.05 -09 14 29.9          20.8 RoEE155926
         K16E86P _C2016 03 09.65285514 19 45.842-09 14 18.25         20.7 RtEE155568
         K16E86P _C2016 03 09.65412314 19 46.018-09 14 18.12         20.9 RtEE155568
         K16E86P _C2016 03 09.65542114 19 46.194-09 14 18.06         20.6 RtEE155568
         K16E86P  C2016 03 11.39289 14 24 00.65 -09 12 23.6          21.8 VqEE155I52
         K16E86P  C2016 03 11.42336 14 24 04.92 -09 12 21.0          21.1 VqEE155I52
         K16E86P  C2016 03 13.53792 14 29 15.825-09 08 30.00         21.0 wLEE155F51
         K16E86P  C2016 03 13.55036 14 29 17.572-09 08 28.51         21.1 wLEE155F51
         K16E86P  C2016 03 13.56274 14 29 19.305-09 08 26.70         21.1 wLEE155F51
         K16E86P  C2016 03 13.57518 14 29 21.058-09 08 25.26         21.0 wLEE155F51
    
    Observer details:
    568 Mauna Kea.  Observers R. J. Wainscoat, D. Woodworth.  Measurers M. Micheli,
        R. J. Wainscoat.  3.6-m Canada-France-Hawaii Telescope + CCD.
    926 Tenagra II Observatory.  Observers M. Schwartz, P. R. Holvorcem.  Measurer
        M. Schwartz.  0.81-m f/7 Ritchey-Chretien + CCD.
    F51 Pan-STARRS 1, Haleakala.  Observers B. Gibson, T. Goggia, N. Primak,
        A. Schultz, M. Willman.  Measurers K. Chambers, S. Chastel, L. Denneau,
        H. Flewelling, M. Huber, E. Lilly, E. Magnier, R. Wainscoat, C. Waters,
        R. Weryk.  1.8-m Ritchey-Chretien + CCD.
    I52 Steward Observatory, Mt. Lemmon Station.  Observer A. R. Gibbs.  Measurers
        E. J. Christensen, D. C. Fuls, A. R. Gibbs, A. D. Grauer, J. A. Johnson,
        R. A. Kowalski, S. M. Larson, G. J. Leonard, R. G. Matheny, R. L. Seaman,
        F. C. Shelly.  1.0-m reflector + CCD.
    
    Orbital elements:
    2016 EP86                                                Earth MOID = 0.2622 AU
    Epoch 2016 Jan. 13.0 TT = JDT 2457400.5                 MPC
    M 330.08792              (2000.0)            P               Q
    n   0.26833568     Peri.   62.91394     -0.66904873     +0.74290166
    a   2.3805854      Node   165.02967     -0.70817926     -0.62837486
    e   0.4713758      Incl.    4.81895     -0.22551260     -0.23074263
    P   3.67           H   20.6           G   0.15           U   7
    Residuals in seconds of arc
    160306 F51  0.0   0.1-    160309 926  0.1-  0.1-    160313 F51  0.1-  0.0
    160306 F51  0.0   0.0     160309 568  0.0   0.2+    160313 F51  0.0   0.1-
    160306 F51  0.1-  0.0     160309 568  0.0   0.2+    160313 F51  0.0   0.1+
    160306 F51  0.1+  0.0     160309 568  0.1-  0.2+    160313 F51  0.1+  0.1-
    160309 926  0.5+  0.6-    160311 I52  0.2-  0.1-
    160309 926  0.2-  0.2+    160311 I52  0.1-  0.0
    
    Ephemeris:
    2016 EP86                a,e,i = 2.38, 0.47, 5                   q = 1.2584
    Date    TT    R. A. (2000) Decl.     Delta      r     Elong.  Phase     V
    2016 02 12    13 18 41.9 -07 55 05   0.7344  1.5058   121.3    34.1    22.2
    ...
    2016 02 27    13 52 10.3 -09 02 41   0.5887  1.4316   128.3    32.9    21.6
    ...
    2016 03 06    14 10 58.7 -09 15 05   0.5222  1.3957   131.8    32.0    21.3
    ...
    2016 03 12    14 25 29.2 -09 11 16   0.4777  1.3708   134.3    31.2    21.0
    2016 03 13    14 27 56.2 -09 09 28   0.4707  1.3669   134.7    31.1    21.0
    2016 03 14    14 30 23.8 -09 07 19   0.4639  1.3630   135.2    31.0    20.9
    ...
    2016 03 20    14 45 19.6 -08 47 10   0.4256  1.3408   137.5    30.1    20.7
    ...
    2016 03 28    15 05 34.6 -08 00 50   0.3816  1.3148   140.4    28.9    20.4
    ...
    2016 04 12    15 43 09.0 -05 41 20   0.3207  1.2785   145.0    26.7    19.9
    
    A. U. Tomatic                (C) Copyright 2016 MPC           M.P.E.C. 2016-E155
    

    Read MPEC 2016-E154 Read MPEC 2016-E156


    MPEC number:

    Enter an MPEC number in one of the following forms:

    • 1997-B01 (the full form)
    • J97B01 (the packed version of the full form)
    • B01 (the abbreviated form)